STARLINK-2026 (47644 NORAD) Tracking and Keplerian Element Data

This shows tracking and keplerian element data for the satellite.

Feedback or suggestion? Click here.




ElementValue
Catalog47644
NameSTARLINK-2026
Epoch Orbit175
Epoch Day105.91667824
Epoch Year2021
RAAN181.7228
Inclination53.0539
Eccentricity0.000162
Argument of Perigee57.2574
Mean Anonmoly284.861
Mean Motion15.06397497
Decay Rate-0.00026979
L11 47644U 21012AA 21105.91667824 -.00026979 00000-0 -17993-2 0 9999
L22 47644 53.0539 181.7228 0001620 57.2574 284.8610 15.06397497 1753

Live tracking and technical data element details for STARLINK-2026 (NORAD 47644). STARLINK-2026 can be tracked NOW for your location showing map with azimuth and elevation plus other details from your city location.

Track the satellite on the map from your city or location and see movement details for azimuth, elevation, latitude, longitude, range, height, and movement on the map or in text.







IsCatalogInMostPopularTable: catalog: 47644, numindb: 18
Update: records affected: 1



GetName: 47644 STARLINK-2026

Hit Count: updated at: Fri, 16 Apr 2021 11:16:40 GMT